Time,TemperatureF,DewpointF,PressureIn,WindDirection,WindDirectionDegrees,WindSpeedMPH,WindSpeedGustMPH,Humidity,HourlyPrecipIn,Conditions,Clouds,dailyrainin,SoftwareType,DateUTC
2013-04-21 00:11:00,51.2,42.0,30.19,NNE,27,0.0,0.0,72,0.00,,,0.00,weatherlink.com 1.10,2013-04-21 05:11:00,
2013-04-21 00:26:00,50.6,43.0,30.19,NNE,27,0.0,0.0,74,0.00,,,0.00,weatherlink.com 1.10,2013-04-21 05:26:00,
2013-04-21 00:42:00,50.4,42.0,30.18,NNE,27,0.0,0.0,73,0.00,,,0.00,weatherlink.com 1.10,2013-04-21 05:42:00,
2013-04-21 00:57:00,50.5,42.0,30.18,NNE,29,0.0,0.0,72,0.00,,,0.00,weatherlink.com 1.10,2013-04-21 05:57:00,
2013-04-21 01:12:00,50.6,42.0,30.18,NNE,29,0.0,0.0,72,0.00,,,0.00,weatherlink.com 1.10,2013-04-21 06:12:00,
2013-04-21 01:27:00,50.3,42.0,30.18,NNE,28,0.0,0.0,73,0.00,,,0.00,weatherlink.com 1.10,2013-04-21 06:27:00,
2013-04-21 01:42:00,49.9,42.0,30.18,NNE,27,0.0,0.0,74,0.00,,,0.00,weatherlink.com 1.10,2013-04-21 06:42:00,
2013-04-21 01:57:00,49.2,43.0,30.17,NNE,27,0.0,0.0,78,0.00,,,0.00,weatherlink.com 1.10,2013-04-21 06:57:00,
2013-04-21 02:12:00,48.2,43.0,30.17,North,9,0.0,0.0,82,0.00,,,0.00,weatherlink.com 1.10,2013-04-21 07:12:00,
2013-04-21 02:27:00,46.9,42.0,30.16,North,1,0.0,0.0,84,0.00,,,0.00,weatherlink.com 1.10,2013-04-21 07:27:00,
2013-04-21 02:42:00,46.5,42.0,30.16,North,1,0.0,0.0,85,0.00,,,0.00,weatherlink.com 1.10,2013-04-21 07:42:00,
2013-04-21 02:57:00,46.4,42.0,30.15,North,1,0.0,0.0,85,0.00,,,0.00,weatherlink.com 1.10,2013-04-21 07:57:00,
2013-04-21 03:12:00,46.0,42.0,30.15,North,1,0.0,0.0,85,0.00,,,0.00,weatherlink.com 1.10,2013-04-21 08:12:00,
2013-04-21 03:27:00,45.8,42.0,30.15,North,1,0.0,0.0,86,0.00,,,0.00,weatherlink.com 1.10,2013-04-21 08:27:00,
2013-04-21 03:42:00,45.3,42.0,30.15,North,358,0.0,0.0,87,0.00,,,0.00,weatherlink.com 1.10,2013-04-21 08:42:00,
2013-04-21 03:57:00,44.9,41.0,30.16,North,359,0.0,0.0,87,0.00,,,0.00,weatherlink.com 1.10,2013-04-21 08:57:00,
2013-04-21 04:12:00,44.4,41.0,30.15,North,359,0.0,0.0,87,0.00,,,0.00,weatherlink.com 1.10,2013-04-21 09:12:00,
2013-04-21 04:27:00,44.0,41.0,30.16,North,359,0.0,0.0,88,0.00,,,0.00,weatherlink.com 1.10,2013-04-21 09:27:00,
2013-04-21 04:42:00,43.9,41.0,30.15,North,359,0.0,0.0,88,0.00,,,0.00,weatherlink.com 1.10,2013-04-21 09:42:00,
2013-04-21 04:57:00,43.7,41.0,30.16,North,359,0.0,0.0,89,0.00,,,0.00,weatherlink.com 1.10,2013-04-21 09:57:00,
2013-04-21 05:12:00,43.6,41.0,30.16,North,359,0.0,0.0,89,0.00,,,0.00,weatherlink.com 1.10,2013-04-21 10:12:00,
2013-04-21 05:27:00,43.3,40.0,30.16,North,359,0.0,0.0,89,0.00,,,0.00,weatherlink.com 1.10,2013-04-21 10:27:00,
2013-04-21 05:42:00,43.1,40.0,30.16,North,359,0.0,0.0,90,0.00,,,0.00,weatherlink.com 1.10,2013-04-21 10:42:00,
2013-04-21 05:57:00,43.2,41.0,30.17,North,359,0.0,0.0,90,0.00,,,0.00,weatherlink.com 1.10,2013-04-21 10:57:00,
2013-04-21 06:12:00,43.6,41.0,30.17,North,359,0.0,0.0,89,0.00,,,0.00,weatherlink.com 1.10,2013-04-21 11:12:00,
2013-04-21 06:27:00,43.5,40.0,30.18,North,357,0.0,0.0,88,0.00,,,0.00,weatherlink.com 1.10,2013-04-21 11:27:00,
2013-04-21 06:42:00,43.5,40.0,30.18,North,357,0.0,0.0,88,0.00,,,0.00,weatherlink.com 1.10,2013-04-21 11:42:00,
2013-04-21 06:57:00,44.2,40.0,30.18,North,357,0.0,0.0,86,0.00,,,0.00,weatherlink.com 1.10,2013-04-21 11:57:00,
2013-04-21 07:13:00,45.3,41.0,30.19,NNW,336,0.0,2.0,84,0.00,,,0.00,weatherlink.com 1.10,2013-04-21 12:13:00,
2013-04-21 07:27:00,46.3,41.0,30.19,NE,34,0.0,2.0,83,0.00,,,0.00,weatherlink.com 1.10,2013-04-21 12:27:00,
2013-04-21 07:42:00,47.4,42.0,30.19,NE,34,0.0,1.0,80,0.00,,,0.00,weatherlink.com 1.10,2013-04-21 12:42:00,
2013-04-21 07:57:00,48.6,41.0,30.19,ENE,63,1.0,2.0,76,0.00,,,0.00,weatherlink.com 1.10,2013-04-21 12:57:00,
2013-04-21 08:12:00,50.0,42.0,30.19,NE,38,0.0,2.0,74,0.00,,,0.00,weatherlink.com 1.10,2013-04-21 13:12:00,
2013-04-21 08:27:00,51.7,43.0,30.20,NE,39,0.0,2.0,71,0.00,,,0.00,weatherlink.com 1.10,2013-04-21 13:27:00,
2013-04-21 08:42:00,53.1,43.0,30.20,NE,42,1.0,2.0,68,0.00,,,0.00,weatherlink.com 1.10,2013-04-21 13:42:00,
2013-04-21 08:58:00,54.6,43.0,30.21,East,82,0.0,4.0,65,0.00,,,0.00,weatherlink.com 1.10,2013-04-21 13:58:00,
2013-04-21 09:13:00,56.3,43.0,30.22,North,355,1.0,4.0,61,0.00,,,0.00,weatherlink.com 1.10,2013-04-21 14:13:00,
2013-04-21 09:28:00,58.4,43.0,30.22,North,8,4.0,4.0,56,0.00,,,0.00,weatherlink.com 1.10,2013-04-21 14:28:00,
2013-04-21 09:43:00,60.0,42.0,30.21,NE,56,0.0,4.0,52,0.00,,,0.00,weatherlink.com 1.10,2013-04-21 14:43:00,
2013-04-21 09:58:00,61.7,44.0,30.21,NE,49,2.0,4.0,52,0.00,,,0.00,weatherlink.com 1.10,2013-04-21 14:58:00,
2013-04-21 10:13:00,62.9,42.0,30.22,SE,138,0.0,5.0,47,0.00,,,0.00,weatherlink.com 1.10,2013-04-21 15:13:00,
2013-04-21 10:28:00,63.8,40.0,30.22,ESE,103,1.0,5.0,42,0.00,,,0.00,weatherlink.com 1.10,2013-04-21 15:28:00,
2013-04-21 10:43:00,64.5,41.0,30.22,ENE,62,3.0,5.0,42,0.00,,,0.00,weatherlink.com 1.10,2013-04-21 15:43:00,
2013-04-21 10:58:00,65.0,41.0,30.22,ESE,102,2.0,8.0,41,0.00,,,0.00,weatherlink.com 1.10,2013-04-21 15:58:00,
2013-04-21 11:13:00,65.9,41.0,30.21,SE,135,1.0,5.0,41,0.00,,,0.00,weatherlink.com 1.10,2013-04-21 16:13:00,
2013-04-21 11:28:00,66.4,42.0,30.20,SE,128,2.0,8.0,41,0.00,,,0.00,weatherlink.com 1.10,2013-04-21 16:28:00,
2013-04-21 11:43:00,67.7,42.0,30.19,SE,131,1.0,3.0,40,0.00,,,0.00,weatherlink.com 1.10,2013-04-21 16:43:00,
2013-04-21 11:58:00,68.2,41.0,30.19,ENE,75,3.0,6.0,38,0.00,,,0.00,weatherlink.com 1.10,2013-04-21 16:58:00,
2013-04-21 12:13:00,68.7,41.0,30.18,SE,138,2.0,5.0,37,0.00,,,0.00,weatherlink.com 1.10,2013-04-21 17:13:00,
2013-04-21 12:28:00,68.6,42.0,30.17,North,9,1.0,6.0,38,0.00,,,0.00,weatherlink.com 1.10,2013-04-21 17:28:00,
2013-04-21 12:43:00,69.1,43.0,30.17,East,95,1.0,4.0,39,0.00,,,0.00,weatherlink.com 1.10,2013-04-21 17:43:00,
2013-04-21 12:58:00,69.7,44.0,30.16,ESE,116,3.0,6.0,39,0.00,,,0.00,weatherlink.com 1.10,2013-04-21 17:58:00,
2013-04-21 13:13:00,69.6,45.0,30.16,East,98,1.0,7.0,41,0.00,,,0.00,weatherlink.com 1.10,2013-04-21 18:13:00,
2013-04-21 13:28:00,69.4,44.0,30.15,SE,135,2.0,5.0,40,0.00,,,0.00,weatherlink.com 1.10,2013-04-21 18:28:00,
2013-04-21 13:43:00,71.1,45.0,30.15,SE,143,2.0,5.0,39,0.00,,,0.00,weatherlink.com 1.10,2013-04-21 18:43:00,
2013-04-21 13:58:00,70.6,42.0,30.15,NE,52,1.0,4.0,36,0.00,,,0.00,weatherlink.com 1.10,2013-04-21 18:58:00,
2013-04-21 14:13:00,72.2,46.0,30.14,East,87,0.0,4.0,39,0.00,,,0.00,weatherlink.com 1.10,2013-04-21 19:13:00,
2013-04-21 14:28:00,71.4,44.0,30.14,East,80,0.0,6.0,37,0.00,,,0.00,weatherlink.com 1.10,2013-04-21 19:28:00,
2013-04-21 14:43:00,72.4,46.0,30.14,SE,144,0.0,4.0,39,0.00,,,0.00,weatherlink.com 1.10,2013-04-21 19:43:00,
2013-04-21 14:59:00,73.0,44.0,30.12,ESE,105,3.0,4.0,36,0.00,,,0.00,weatherlink.com 1.10,2013-04-21 19:59:00,
2013-04-21 15:14:00,73.4,47.0,30.11,SE,138,0.0,4.0,39,0.00,,,0.00,weatherlink.com 1.10,2013-04-21 20:14:00,
2013-04-21 15:29:00,73.1,45.0,30.11,ESE,120,1.0,4.0,36,0.00,,,0.00,weatherlink.com 1.10,2013-04-21 20:29:00,
2013-04-21 15:44:00,73.0,42.0,30.10,NNW,345,1.0,5.0,33,0.00,,,0.00,weatherlink.com 1.10,2013-04-21 20:44:00,
2013-04-21 15:59:00,73.7,46.0,30.09,East,84,1.0,5.0,37,0.00,,,0.00,weatherlink.com 1.10,2013-04-21 20:59:00,
2013-04-21 16:14:00,74.1,46.0,30.09,SE,125,2.0,5.0,37,0.00,,,0.00,weatherlink.com 1.10,2013-04-21 21:14:00,
2013-04-21 16:29:00,74.4,46.0,30.08,SE,125,0.0,3.0,37,0.00,,,0.00,weatherlink.com 1.10,2013-04-21 21:29:00,
2013-04-21 16:44:00,74.8,45.0,30.08,SSE,153,0.0,2.0,35,0.00,,,0.00,weatherlink.com 1.10,2013-04-21 21:44:00,
2013-04-21 16:59:00,73.7,46.0,30.08,ESE,116,0.0,4.0,37,0.00,,,0.00,weatherlink.com 1.10,2013-04-21 21:59:00,
2013-04-21 17:14:00,74.0,45.0,30.08,NNE,13,2.0,3.0,36,0.00,,,0.00,weatherlink.com 1.10,2013-04-21 22:14:00,
2013-04-21 17:29:00,73.1,44.0,30.09,SE,138,2.0,4.0,35,0.00,,,0.00,weatherlink.com 1.10,2013-04-21 22:29:00,
2013-04-21 17:44:00,73.2,46.0,30.09,SE,143,1.0,3.0,38,0.00,,,0.00,weatherlink.com 1.10,2013-04-21 22:44:00,
2013-04-21 17:59:00,74.2,46.0,30.09,SE,132,0.0,2.0,37,0.00,,,0.00,weatherlink.com 1.10,2013-04-21 22:59:00,
2013-04-21 18:14:00,73.6,46.0,30.09,ESE,115,0.0,2.0,37,0.00,,,0.00,weatherlink.com 1.10,2013-04-21 23:14:00,
2013-04-21 18:29:00,72.9,45.0,30.09,SE,134,0.0,1.0,37,0.00,,,0.00,weatherlink.com 1.10,2013-04-21 23:29:00,
2013-04-21 18:44:00,71.2,44.0,30.09,NNE,22,2.0,2.0,38,0.00,,,0.00,weatherlink.com 1.10,2013-04-21 23:44:00,
2013-04-21 18:59:00,69.6,47.0,30.09,North,8,0.0,1.0,45,0.00,,,0.00,weatherlink.com 1.10,2013-04-21 23:59:00,
2013-04-21 19:14:00,68.0,47.0,30.10,North,8,0.0,0.0,47,0.00,,,0.00,weatherlink.com 1.10,2013-04-22 00:14:00,
2013-04-21 19:29:00,66.3,47.0,30.10,North,8,0.0,0.0,50,0.00,,,0.00,weatherlink.com 1.10,2013-04-22 00:29:00,
2013-04-21 19:44:00,64.5,48.0,30.10,North,8,0.0,0.0,55,0.00,,,0.00,weatherlink.com 1.10,2013-04-22 00:44:00,
2013-04-21 19:59:00,63.0,48.0,30.10,North,9,0.0,0.0,59,0.00,,,0.00,weatherlink.com 1.10,2013-04-22 00:59:00,
2013-04-21 20:14:00,61.8,48.0,30.11,North,8,0.0,0.0,61,0.00,,,0.00,weatherlink.com 1.10,2013-04-22 01:14:00,
2013-04-21 20:29:00,61.1,49.0,30.11,North,9,0.0,0.0,65,0.00,,,0.00,weatherlink.com 1.10,2013-04-22 01:29:00,
2013-04-21 20:44:00,60.2,48.0,30.12,North,9,0.0,0.0,65,0.00,,,0.00,weatherlink.com 1.10,2013-04-22 01:44:00,
2013-04-21 20:59:00,59.9,48.0,30.12,North,9,0.0,0.0,65,0.00,,,0.00,weatherlink.com 1.10,2013-04-22 01:59:00,
2013-04-21 21:14:00,59.5,48.0,30.12,North,9,0.0,0.0,67,0.00,,,0.00,weatherlink.com 1.10,2013-04-22 02:14:00,
2013-04-21 21:29:00,58.4,48.0,30.12,North,9,0.0,0.0,69,0.00,,,0.00,weatherlink.com 1.10,2013-04-22 02:29:00,
2013-04-21 21:44:00,57.8,48.0,30.12,North,9,0.0,0.0,70,0.00,,,0.00,weatherlink.com 1.10,2013-04-22 02:44:00,
2013-04-21 21:59:00,57.8,47.0,30.12,North,9,0.0,0.0,67,0.00,,,0.00,weatherlink.com 1.10,2013-04-22 02:59:00,
2013-04-21 22:14:00,57.6,48.0,30.12,North,9,0.0,0.0,70,0.00,,,0.00,weatherlink.com 1.10,2013-04-22 03:14:00,
2013-04-21 22:29:00,56.9,47.0,30.12,North,9,0.0,0.0,69,0.00,,,0.00,weatherlink.com 1.10,2013-04-22 03:29:00,
2013-04-21 22:44:00,56.5,47.0,30.11,North,9,0.0,0.0,71,0.00,,,0.00,weatherlink.com 1.10,2013-04-22 03:44:00,
2013-04-21 22:59:00,56.1,47.0,30.11,North,9,0.0,0.0,72,0.00,,,0.00,weatherlink.com 1.10,2013-04-22 03:59:00,
2013-04-21 23:14:00,55.3,49.0,30.12,SSE,163,2.0,3.0,78,0.00,,,0.00,weatherlink.com 1.10,2013-04-22 04:14:00,
2013-04-21 23:29:00,55.1,48.0,30.12,SSE,155,0.0,0.0,77,0.00,,,0.00,weatherlink.com 1.10,2013-04-22 04:29:00,
2013-04-21 23:44:00,54.6,48.0,30.12,SSE,155,0.0,0.0,78,0.00,,,0.00,weatherlink.com 1.10,2013-04-22 04:44:00,
2013-04-21 23:59:00,54.0,48.0,30.12,SSE,155,0.0,0.0,80,0.00,,,0.00,weatherlink.com 1.10,2013-04-22 04:59:00,